HAZ365C ZUCK-ZGGG

Flight info

Callsign HAZ365C
Flight time 1h 38m
Altitude 31100
Route VILUS W180 LIDMA W182 LAGEX G586 SJG B330 GYA
Aircraft B77W/H-SDE2E3FGILRWXY/LB2

Departure

Time 2026-04-21 04:10
Airport Chongqing Jiangbei International Airport (ZUCK)

Arrival

Time 2026-04-21 05:48
Airport Guangzhou Baiyun International Airport (ZGGG)
Time Latitude Longitude Altitude Speed Heading
2026-04-21 03:40 29.72795 106.66107 1377 ft 0 kts 260°
2026-04-21 03:58 29.72797 106.66121 1377 ft 2 kts 260°
2026-04-21 03:58 29.72800 106.66138 1377 ft 2 kts 260°
2026-04-21 03:58 29.72802 106.66155 1377 ft 2 kts 260°
2026-04-21 03:58 29.72804 106.66165 1377 ft 2 kts 259°
2026-04-21 03:59 29.72808 106.66182 1377 ft 2 kts 248°
2026-04-21 03:59 29.72814 106.66197 1377 ft 2 kts 237°
2026-04-21 03:59 29.72823 106.66211 1377 ft 2 kts 227°
2026-04-21 04:00 29.72847 106.66232 1377 ft 2 kts 207°
2026-04-21 04:00 29.72860 106.66238 1377 ft 1 kts 198°
2026-04-21 04:00 29.72864 106.66240 1377 ft 0 kts 195°
2026-04-21 04:03 29.72859 106.66238 1377 ft 2 kts 195°
2026-04-21 04:04 29.72825 106.66227 1377 ft 7 kts 196°
2026-04-21 04:04 29.72760 106.66203 1377 ft 12 kts 198°
2026-04-21 04:04 29.72673 106.66173 1377 ft 12 kts 197°
2026-04-21 04:04 29.72589 106.66144 1377 ft 12 kts 197°
2026-04-21 04:05 29.72524 106.66122 1377 ft 4 kts 196°
2026-04-21 04:05 29.72482 106.66112 1377 ft 7 kts 185°
2026-04-21 04:05 29.72449 106.66146 1377 ft 7 kts 104°
2026-04-21 04:05 29.72408 106.66170 1377 ft 8 kts 191°
2026-04-21 04:06 29.72338 106.66148 1377 ft 11 kts 196°
2026-04-21 04:06 29.72250 106.66118 1377 ft 14 kts 197°
2026-04-21 04:06 29.72145 106.66082 1377 ft 16 kts 197°
2026-04-21 04:06 29.72024 106.66040 1377 ft 19 kts 197°
2026-04-21 04:07 29.71891 106.65994 1377 ft 20 kts 197°
2026-04-21 04:07 29.71746 106.65944 1377 ft 22 kts 197°
2026-04-21 04:07 29.71610 106.65896 1377 ft 14 kts 197°
2026-04-21 04:07 29.71518 106.65866 1377 ft 3 kts 196°
2026-04-21 04:08 29.71518 106.65865 1377 ft 0 kts 196°
2026-04-21 04:08 29.71514 106.65865 1377 ft 0 kts 180°
2026-04-21 04:08 29.71506 106.65872 1377 ft 2 kts 126°
2026-04-21 04:08 29.71499 106.65911 1377 ft 8 kts 101°
2026-04-21 04:09 29.71483 106.65996 1377 ft 11 kts 105°
2026-04-21 04:09 29.71461 106.66080 1377 ft 10 kts 106°
2026-04-21 04:09 29.71473 106.66152 1377 ft 6 kts 34°
2026-04-21 04:09 29.71543 106.66183 1377 ft 24 kts 17°
2026-04-21 04:10 29.71998 106.66341 1378 ft 114 kts 17°
2026-04-21 04:10 29.72998 106.66687 1621 ft 172 kts 15°
2026-04-21 04:10 29.74099 106.67080 2684 ft 169 kts 15°
2026-04-21 04:10 29.75246 106.67465 3367 ft 179 kts 17°
2026-04-21 04:11 29.76506 106.67900 3975 ft 197 kts 18°
2026-04-21 04:11 29.77773 106.68613 4597 ft 215 kts 37°
2026-04-21 04:11 29.79039 106.69649 5243 ft 234 kts 35°
2026-04-21 04:11 29.80452 106.70724 5953 ft 253 kts 33°
2026-04-21 04:12 29.81961 106.71809 6779 ft 265 kts 32°
2026-04-21 04:12 29.83546 106.72937 7715 ft 273 kts 32°
2026-04-21 04:12 29.84997 106.74357 8550 ft 281 kts 53°
2026-04-21 04:12 29.85854 106.76366 9374 ft 287 kts 78°
2026-04-21 04:13 29.85909 106.78665 10180 ft 293 kts 103°
2026-04-21 04:13 29.85384 106.80965 10821 ft 310 kts 110°
2026-04-21 04:13 29.84715 106.83392 11506 ft 328 kts 110°
2026-04-21 04:13 29.84020 106.85943 12242 ft 345 kts 109°
2026-04-21 04:14 29.83289 106.88631 12914 ft 362 kts 112°
2026-04-21 04:14 29.82221 106.91295 13652 ft 374 kts 122°
2026-04-21 04:14 29.80675 106.93752 14526 ft 381 kts 134°
2026-04-21 04:14 29.78738 106.95819 15475 ft 384 kts 146°
2026-04-21 04:15 29.76497 106.97412 16360 ft 387 kts 157°
2026-04-21 04:15 29.73970 106.98498 17189 ft 390 kts 168°
2026-04-21 04:15 29.71292 106.98985 18065 ft 392 kts 180°
2026-04-21 04:15 29.68590 106.98850 18945 ft 393 kts 192°
2026-04-21 04:16 29.65922 106.98119 19820 ft 395 kts 200°
2026-04-21 04:16 29.63312 106.97190 20762 ft 397 kts 200°
2026-04-21 04:16 29.60589 106.96460 21656 ft 404 kts 191°
2026-04-21 04:16 29.57766 106.96240 22413 ft 413 kts 184°
2026-04-21 04:17 29.54871 106.96196 23236 ft 418 kts 184°
2026-04-21 04:17 29.51966 106.96163 24010 ft 424 kts 184°
2026-04-21 04:17 29.49013 106.96130 24805 ft 429 kts 184°
2026-04-21 04:17 29.46000 106.96094 25600 ft 434 kts 184°
2026-04-21 04:18 29.42988 106.96059 26347 ft 440 kts 184°
2026-04-21 04:18 29.39894 106.96021 27094 ft 446 kts 184°
2026-04-21 04:18 29.36802 106.95985 27865 ft 450 kts 184°
2026-04-21 04:18 29.33663 106.95946 28587 ft 455 kts 184°
2026-04-21 04:19 29.30465 106.95908 29274 ft 461 kts 185°
2026-04-21 04:19 29.27235 106.95869 30182 ft 461 kts 185°
2026-04-21 04:19 29.24042 106.95831 30881 ft 464 kts 186°
2026-04-21 04:19 29.20819 106.95793 31010 ft 462 kts 186°
2026-04-21 04:20 29.17619 106.95756 31011 ft 461 kts 186°
2026-04-21 04:20 29.14362 106.95713 31016 ft 477 kts 186°
2026-04-21 04:20 29.11002 106.95669 31017 ft 492 kts 185°
2026-04-21 04:20 29.07500 106.95624 31022 ft 506 kts 185°
2026-04-21 04:21 29.03977 106.95582 31013 ft 511 kts 185°
2026-04-21 04:21 28.96854 106.95500 31024 ft 512 kts 185°
2026-04-21 04:22 28.89710 106.95417 31015 ft 512 kts 185°
2026-04-21 04:22 28.82567 106.95333 31005 ft 511 kts 185°
2026-04-21 04:23 28.75471 106.95249 31017 ft 512 kts 185°
2026-04-21 04:23 28.68332 106.95164 31015 ft 512 kts 186°
2026-04-21 04:24 28.61226 106.95080 31028 ft 511 kts 186°
2026-04-21 04:24 28.54111 106.94995 31038 ft 512 kts 186°
2026-04-21 04:25 28.46986 106.94910 31068 ft 512 kts 186°
2026-04-21 04:25 28.39850 106.94826 31071 ft 512 kts 186°
2026-04-21 04:26 28.32729 106.94742 31063 ft 513 kts 186°
2026-04-21 04:26 28.25575 106.94657 31064 ft 512 kts 186°
2026-04-21 04:27 28.18466 106.94838 31058 ft 514 kts 182°
2026-04-21 04:27 28.11304 106.95284 31052 ft 515 kts 182°
2026-04-21 04:28 28.04099 106.95712 31045 ft 516 kts 183°
2026-04-21 04:28 27.96911 106.96107 31039 ft 515 kts 183°
2026-04-21 04:29 27.89796 106.96491 31040 ft 514 kts 183°
2026-04-21 04:29 27.82583 106.96874 31044 ft 517 kts 183°
2026-04-21 04:30 27.75439 106.97253 31045 ft 515 kts 183°
2026-04-21 04:30 27.68250 106.97633 31050 ft 514 kts 183°
2026-04-21 04:31 27.61129 106.98007 31039 ft 515 kts 183°
2026-04-21 04:31 27.53928 106.98385 31029 ft 516 kts 183°
2026-04-21 04:32 27.46776 106.98760 31028 ft 515 kts 183°
2026-04-21 04:32 27.39613 106.99147 31026 ft 515 kts 184°
2026-04-21 04:33 27.32452 106.99535 31030 ft 514 kts 184°
2026-04-21 04:33 27.25258 106.99923 31024 ft 516 kts 184°
2026-04-21 04:34 27.18112 107.00307 31032 ft 516 kts 184°
2026-04-21 04:34 27.10950 107.00696 31025 ft 516 kts 183°
2026-04-21 04:35 27.03839 107.02301 31026 ft 526 kts 166°
2026-04-21 04:35 26.97258 107.06181 31033 ft 547 kts 148°
2026-04-21 04:36 26.91728 107.12080 31030 ft 554 kts 131°
2026-04-21 04:36 26.87805 107.19510 31036 ft 561 kts 114°
2026-04-21 04:37 26.85682 107.27959 31038 ft 564 kts 103°
2026-04-21 04:37 26.83937 107.36448 31041 ft 564 kts 104°
2026-04-21 04:38 26.82019 107.44926 31040 ft 563 kts 105°
2026-04-21 04:38 26.79985 107.53418 31039 ft 563 kts 105°
2026-04-21 04:39 26.77913 107.61799 31033 ft 562 kts 105°
2026-04-21 04:39 26.75782 107.70214 31014 ft 563 kts 107°
2026-04-21 04:40 26.73628 107.78611 31016 ft 563 kts 107°
2026-04-21 04:40 26.71455 107.87015 31018 ft 562 kts 107°
2026-04-21 04:41 26.69288 107.95351 31018 ft 561 kts 107°
2026-04-21 04:41 26.67102 108.03727 31025 ft 561 kts 107°
2026-04-21 04:42 26.64919 108.12056 31024 ft 561 kts 107°
2026-04-21 04:42 26.62728 108.20396 31029 ft 562 kts 107°
2026-04-21 04:43 26.60518 108.28781 31048 ft 562 kts 107°
2026-04-21 04:43 26.58327 108.37072 31036 ft 559 kts 107°
2026-04-21 04:44 26.56335 108.45458 31032 ft 560 kts 104°
2026-04-21 04:44 26.54399 108.53893 31029 ft 561 kts 104°
2026-04-21 04:45 26.52461 108.62270 31031 ft 560 kts 104°
2026-04-21 04:45 26.50510 108.70658 31020 ft 559 kts 105°
2026-04-21 04:46 26.48541 108.79084 31023 ft 560 kts 105°
2026-04-21 04:46 26.46588 108.87410 31022 ft 558 kts 105°
2026-04-21 04:47 26.44457 108.95684 31027 ft 556 kts 112°
2026-04-21 04:47 26.40740 109.03226 31022 ft 555 kts 129°
2026-04-21 04:48 26.35442 109.09339 31024 ft 545 kts 143°
2026-04-21 04:48 26.29570 109.14671 31031 ft 545 kts 144°
2026-04-21 04:49 26.23690 109.19957 31030 ft 545 kts 144°
2026-04-21 04:49 26.17782 109.25256 31036 ft 544 kts 144°
2026-04-21 04:50 26.11885 109.30534 31031 ft 544 kts 144°
2026-04-21 04:50 26.05993 109.35799 31034 ft 543 kts 144°
2026-04-21 04:51 26.00095 109.41060 31028 ft 545 kts 144°
2026-04-21 04:51 25.94211 109.46301 31026 ft 545 kts 144°
2026-04-21 04:52 25.88284 109.51573 31012 ft 544 kts 144°
2026-04-21 04:52 25.82373 109.56824 31017 ft 545 kts 144°
2026-04-21 04:53 25.76465 109.62081 31019 ft 545 kts 142°
2026-04-21 04:53 25.70972 109.67866 31015 ft 549 kts 139°
2026-04-21 04:54 25.65478 109.73776 31016 ft 547 kts 139°
2026-04-21 04:54 25.60033 109.79583 31029 ft 546 kts 139°
2026-04-21 04:55 25.54513 109.85438 31035 ft 548 kts 139°
2026-04-21 04:55 25.49051 109.91211 31041 ft 546 kts 139°
2026-04-21 04:56 25.43531 109.97028 31034 ft 548 kts 139°
2026-04-21 04:56 25.38011 110.02836 31022 ft 546 kts 139°
2026-04-21 04:57 25.32507 110.08615 31025 ft 546 kts 139°
2026-04-21 04:57 25.26979 110.14410 31021 ft 547 kts 139°
2026-04-21 04:58 25.21464 110.20184 31020 ft 547 kts 140°
2026-04-21 04:58 25.15982 110.25963 31020 ft 547 kts 139°
2026-04-21 04:59 25.10494 110.31776 31027 ft 548 kts 139°
2026-04-21 04:59 25.05020 110.37563 31033 ft 547 kts 139°
2026-04-21 05:00 24.99499 110.43394 31039 ft 547 kts 139°
2026-04-21 05:00 24.91251 110.52119 31041 ft 547 kts 139°
2026-04-21 05:01 24.85774 110.57903 31037 ft 548 kts 139°
2026-04-21 05:01 24.80258 110.63718 31037 ft 546 kts 139°
2026-04-21 05:02 24.74767 110.69501 31021 ft 546 kts 140°
2026-04-21 05:02 24.69284 110.75268 31023 ft 544 kts 140°
2026-04-21 05:03 24.63845 110.81036 31027 ft 546 kts 139°
2026-04-21 05:03 24.58439 110.86874 31032 ft 544 kts 139°
2026-04-21 05:04 24.53057 110.92673 31038 ft 544 kts 139°
2026-04-21 05:04 24.47629 110.98511 31029 ft 543 kts 139°
2026-04-21 05:05 24.42236 111.04301 31029 ft 543 kts 139°
2026-04-21 05:05 24.36850 111.10076 31032 ft 544 kts 139°
2026-04-21 05:06 24.31444 111.15865 31031 ft 543 kts 139°
2026-04-21 05:06 24.26038 111.21645 31032 ft 544 kts 139°
2026-04-21 05:07 24.20394 111.27060 31038 ft 537 kts 149°
2026-04-21 05:07 24.13874 111.31025 31046 ft 534 kts 156°
2026-04-21 05:08 24.07275 111.34718 31048 ft 530 kts 157°
2026-04-21 05:08 24.00705 111.38387 31046 ft 531 kts 157°
2026-04-21 05:09 23.94140 111.42072 31038 ft 532 kts 156°
2026-04-21 05:09 23.87536 111.45769 31032 ft 532 kts 156°
2026-04-21 05:10 23.80981 111.49427 31024 ft 531 kts 156°
2026-04-21 05:10 23.74395 111.53093 31022 ft 531 kts 156°
2026-04-21 05:11 23.67801 111.56757 31021 ft 530 kts 156°
2026-04-21 05:11 23.61193 111.60423 31019 ft 532 kts 156°
2026-04-21 05:12 23.54643 111.64053 31017 ft 530 kts 156°
2026-04-21 05:12 23.48061 111.67696 31002 ft 531 kts 156°
2026-04-21 05:13 23.41483 111.71332 31004 ft 529 kts 156°
2026-04-21 05:13 23.38219 111.73138 30996 ft 512 kts 156°
2026-04-21 05:13 23.35104 111.74860 30999 ft 492 kts 156°
2026-04-21 05:14 23.32119 111.76508 31001 ft 474 kts 156°
2026-04-21 05:14 23.29202 111.78118 31017 ft 469 kts 155°
2026-04-21 05:14 23.23952 111.82443 31049 ft 480 kts 135°
2026-04-21 05:15 23.20209 111.88466 31066 ft 486 kts 115°
2026-04-21 05:15 23.18260 111.95442 31064 ft 489 kts 102°
2026-04-21 05:16 23.16735 112.02644 31068 ft 489 kts 102°
2026-04-21 05:16 23.15223 112.09830 31057 ft 488 kts 102°
2026-04-21 05:17 23.13721 112.16976 31055 ft 490 kts 102°
2026-04-21 05:17 23.12199 112.24213 31043 ft 490 kts 102°
2026-04-21 05:18 23.10692 112.31368 31040 ft 489 kts 102°
2026-04-21 05:18 23.09173 112.38560 31032 ft 490 kts 102°
2026-04-21 05:19 23.07646 112.45786 31029 ft 490 kts 102°
2026-04-21 05:19 23.07042 112.53115 31030 ft 489 kts 89°
2026-04-21 05:20 23.07028 112.60477 31022 ft 490 kts 88°
2026-04-21 05:20 23.07019 112.67828 31012 ft 489 kts 89°
2026-04-21 05:21 23.07000 112.75188 31008 ft 491 kts 89°
2026-04-21 05:21 23.06969 112.78866 30971 ft 479 kts 89°
2026-04-21 05:21 23.06937 112.82414 30887 ft 463 kts 89°
2026-04-21 05:22 23.06905 112.85819 30853 ft 446 kts 89°
2026-04-21 05:22 23.06874 112.89146 30686 ft 433 kts 89°
2026-04-21 05:22 23.06846 112.92358 30061 ft 426 kts 88°
2026-04-21 05:22 23.06817 112.95575 29294 ft 423 kts 88°
2026-04-21 05:23 23.06788 112.98698 28544 ft 420 kts 88°
2026-04-21 05:23 23.06758 113.01868 27874 ft 414 kts 88°
2026-04-21 05:23 23.06728 113.04962 27290 ft 407 kts 89°
2026-04-21 05:23 23.06696 113.07989 26691 ft 401 kts 90°
2026-04-21 05:24 23.06355 113.10944 25934 ft 400 kts 104°
2026-04-21 05:24 23.05391 113.13747 25097 ft 398 kts 119°
2026-04-21 05:24 23.03853 113.16188 24459 ft 388 kts 134°
2026-04-21 05:24 23.01874 113.18132 23915 ft 375 kts 148°
2026-04-21 05:25 22.99664 113.19490 23294 ft 365 kts 160°
2026-04-21 05:25 22.97283 113.20294 22639 ft 356 kts 172°
2026-04-21 05:25 22.94854 113.20538 21992 ft 347 kts 184°
2026-04-21 05:25 22.92480 113.20245 21369 ft 339 kts 196°
2026-04-21 05:26 22.90252 113.19454 20843 ft 332 kts 207°
2026-04-21 05:26 22.88257 113.18236 20344 ft 325 kts 218°
2026-04-21 05:26 22.87676 113.17766 20183 ft 323 kts 221°
2026-04-21 05:26 22.85185 113.14838 19356 ft 314 kts 238°
2026-04-21 05:27 22.84142 113.12765 18825 ft 311 kts 248°
2026-04-21 05:27 22.83480 113.10588 18338 ft 306 kts 257°
2026-04-21 05:27 22.83183 113.08328 17849 ft 303 kts 266°
2026-04-21 05:27 22.83254 113.06063 17342 ft 302 kts 276°
2026-04-21 05:28 22.83523 113.03811 16903 ft 298 kts 274°
2026-04-21 05:28 22.83727 113.01606 16469 ft 294 kts 272°
2026-04-21 05:28 22.83878 112.99414 16015 ft 291 kts 271°
2026-04-21 05:28 22.83991 112.97243 15545 ft 289 kts 270°
2026-04-21 05:29 22.84095 112.95086 15063 ft 288 kts 273°
2026-04-21 05:29 22.84447 112.92934 14572 ft 288 kts 282°
2026-04-21 05:29 22.85116 112.90903 14135 ft 287 kts 291°
2026-04-21 05:29 22.86072 112.89035 13675 ft 287 kts 300°
2026-04-21 05:30 22.87316 112.87334 13188 ft 289 kts 309°
2026-04-21 05:30 22.88800 112.85880 12730 ft 290 kts 318°
2026-04-21 05:30 22.90516 112.84691 12229 ft 292 kts 328°
2026-04-21 05:30 22.92386 112.83830 11744 ft 295 kts 338°
2026-04-21 05:31 22.94396 112.83318 11280 ft 296 kts 347°
2026-04-21 05:31 22.96454 112.83182 10815 ft 298 kts 358°
2026-04-21 05:31 22.98517 112.83431 10364 ft 299 kts
2026-04-21 05:31 23.00500 112.84056 9927 ft 299 kts 18°
2026-04-21 05:32 23.02376 112.85051 9459 ft 299 kts 29°
2026-04-21 05:32 23.04048 112.86364 8998 ft 299 kts 40°
2026-04-21 05:32 23.05489 112.87971 8578 ft 297 kts 50°
2026-04-21 05:32 23.06654 112.89829 8254 ft 292 kts 61°
2026-04-21 05:33 23.07414 112.91787 8144 ft 277 kts 79°
2026-04-21 05:33 23.07678 112.93832 8013 ft 266 kts 85°
2026-04-21 05:33 23.07867 112.95798 7762 ft 262 kts 85°
2026-04-21 05:33 23.08050 112.97756 7442 ft 261 kts 85°
2026-04-21 05:34 23.08234 112.99724 7146 ft 259 kts 85°
2026-04-21 05:34 23.08717 113.01555 6931 ft 257 kts 59°
2026-04-21 05:34 23.09976 113.02931 6631 ft 258 kts 28°
2026-04-21 05:34 23.11618 113.03769 6237 ft 261 kts 22°
2026-04-21 05:35 23.13301 113.04530 5934 ft 260 kts 21°
2026-04-21 05:35 23.14962 113.05270 5632 ft 259 kts 21°
2026-04-21 05:35 23.16622 113.06006 5324 ft 258 kts 21°
2026-04-21 05:35 23.18284 113.06740 5041 ft 256 kts 21°
2026-04-21 05:36 23.19935 113.07465 4908 ft 253 kts 21°
2026-04-21 05:36 23.21589 113.08191 4898 ft 255 kts 21°
2026-04-21 05:36 23.23225 113.08909 4892 ft 255 kts 21°
2026-04-21 05:36 23.24876 113.09633 4892 ft 255 kts 21°
2026-04-21 05:37 23.26541 113.10362 4888 ft 255 kts 21°
2026-04-21 05:37 23.28186 113.11081 4890 ft 255 kts 21°
2026-04-21 05:37 23.29839 113.11806 4896 ft 255 kts 21°
2026-04-21 05:37 23.31500 113.12534 4895 ft 255 kts 21°
2026-04-21 05:38 23.33142 113.13255 4898 ft 256 kts 21°
2026-04-21 05:38 23.34797 113.13982 4898 ft 255 kts 21°
2026-04-21 05:38 23.36454 113.14709 4898 ft 256 kts 21°
2026-04-21 05:38 23.38120 113.15440 4901 ft 256 kts 21°
2026-04-21 05:39 23.39762 113.16160 4899 ft 256 kts 21°
2026-04-21 05:39 23.41410 113.16882 4901 ft 256 kts 21°
2026-04-21 05:39 23.43100 113.17548 4903 ft 256 kts 17°
2026-04-21 05:39 23.44809 113.18132 4898 ft 256 kts 16°
2026-04-21 05:40 23.46497 113.18701 4895 ft 256 kts 16°
2026-04-21 05:40 23.48218 113.19283 4784 ft 261 kts 16°
2026-04-21 05:40 23.49958 113.19870 4425 ft 263 kts 16°
2026-04-21 05:40 23.51707 113.20454 4061 ft 264 kts 16°
2026-04-21 05:41 23.53457 113.21033 3701 ft 266 kts 16°
2026-04-21 05:41 23.55241 113.21616 3335 ft 267 kts 16°
2026-04-21 05:41 23.57016 113.22191 3041 ft 265 kts 16°
2026-04-21 05:41 23.58753 113.22750 2993 ft 251 kts 17°
2026-04-21 05:42 23.59802 113.23238 2966 ft 246 kts 32°
2026-04-21 05:42 23.61313 113.24993 2883 ft 227 kts 65°
2026-04-21 05:42 23.61828 113.26476 2832 ft 198 kts 73°
2026-04-21 05:42 23.62056 113.27899 2776 ft 184 kts 99°
2026-04-21 05:43 23.61600 113.29157 2757 ft 180 kts 128°
2026-04-21 05:43 23.60631 113.29979 2485 ft 171 kts 159°
2026-04-21 05:43 23.59535 113.30312 2346 ft 162 kts 164°
2026-04-21 05:43 23.58440 113.30616 2213 ft 159 kts 164°
2026-04-21 05:44 23.57371 113.30910 2117 ft 155 kts 165°
2026-04-21 05:44 23.56316 113.31194 2328 ft 159 kts 165°
2026-04-21 05:44 23.55247 113.31486 2557 ft 160 kts 163°
2026-04-21 05:44 23.54170 113.31794 2494 ft 161 kts 175°
2026-04-21 05:45 23.53075 113.31602 2296 ft 158 kts 193°
2026-04-21 05:45 23.52022 113.31278 2125 ft 157 kts 191°
2026-04-21 05:45 23.50945 113.30988 1926 ft 158 kts 191°
2026-04-21 05:45 23.49887 113.30702 1741 ft 149 kts 190°
2026-04-21 05:46 23.48918 113.30441 1564 ft 143 kts 190°
2026-04-21 05:46 23.47952 113.30181 1387 ft 140 kts 191°
2026-04-21 05:46 23.47019 113.29930 1207 ft 139 kts 191°
2026-04-21 05:46 23.46067 113.29675 1027 ft 139 kts 192°
2026-04-21 05:47 23.45122 113.29419 843 ft 140 kts 193°
2026-04-21 05:47 23.44194 113.29134 660 ft 141 kts 193°
2026-04-21 05:47 23.43243 113.28905 474 ft 142 kts 192°
2026-04-21 05:47 23.42278 113.28652 277 ft 142 kts 193°
2026-04-21 05:48 23.41327 113.28404 167 ft 143 kts 192°
2026-04-21 05:48 23.40368 113.28158 67 ft 133 kts 193°
2026-04-21 05:48 23.39593 113.27938 62 ft 99 kts 199°
2026-04-21 05:48 23.39118 113.27812 60 ft 12 kts 188°
2026-04-21 05:49 23.39044 113.27801 60 ft 10 kts 187°
2026-04-21 05:49 23.38973 113.27792 60 ft 10 kts 187°
2026-04-21 05:49 23.38903 113.27787 60 ft 9 kts 175°
2026-04-21 05:49 23.38832 113.27796 60 ft 10 kts 172°
2026-04-21 05:50 23.38763 113.27811 60 ft 10 kts 167°
2026-04-21 05:50 23.38711 113.27849 60 ft 8 kts 98°
2026-04-21 05:50 23.38724 113.27877 60 ft 0 kts 49°
2026-04-21 05:50 23.38724 113.27876 60 ft 0 kts 49°
2026-04-21 05:51 23.38724 113.27877 60 ft 1 kts 49°
2026-04-21 05:51 23.38725 113.27878 60 ft 0 kts 49°